Time,TemperatureF,DewpointF,PressureIn,WindDirection,WindDirectionDegrees,WindSpeedMPH,WindSpeedGustMPH,Humidity,HourlyPrecipIn,Conditions,Clouds,dailyrainin,SoftwareType,DateUTC
2013-01-26 00:01:00,42.0,41.0,29.95,SE,146,0.0,0.0,96,0.02,,,0.24,,2013-01-26 05:01:00,
2013-01-26 00:12:00,42.0,41.0,29.95,SE,146,0.0,0.0,96,0.02,,,0.24,,2013-01-26 05:12:00,
2013-01-26 00:22:00,42.0,41.0,29.95,SE,146,0.0,0.0,96,0.01,,,0.24,,2013-01-26 05:22:00,
2013-01-26 00:32:00,42.0,41.0,29.95,SE,146,0.0,0.0,96,0.01,,,0.24,,2013-01-26 05:32:00,
2013-01-26 00:42:00,42.0,41.0,29.95,SE,146,0.0,0.0,96,0.01,,,0.24,,2013-01-26 05:42:00,
2013-01-26 00:52:00,41.0,40.0,29.95,SE,146,0.0,0.0,96,0.00,,,0.23,,2013-01-26 05:52:00,
2013-01-26 01:02:00,41.0,40.0,29.95,SE,146,0.0,0.0,96,0.00,,,0.23,,2013-01-26 06:02:00,
2013-01-26 01:12:00,41.0,40.0,29.95,SE,146,0.0,0.0,96,0.00,,,0.23,,2013-01-26 06:12:00,
2013-01-26 01:21:00,40.0,39.0,29.94,SE,146,0.0,0.0,96,0.00,,,0.23,,2013-01-26 06:21:00,
2013-01-26 01:31:00,40.0,39.0,29.94,SE,146,0.0,0.0,96,0.00,,,0.23,,2013-01-26 06:31:00,
2013-01-26 01:42:00,40.0,39.0,29.94,SE,146,0.0,0.0,96,0.00,,,0.23,,2013-01-26 06:42:00,
2013-01-26 01:52:00,39.0,38.0,29.94,SE,146,0.0,0.0,96,0.00,,,0.23,,2013-01-26 06:52:00,
2013-01-26 02:01:00,39.0,38.0,29.94,SE,146,0.0,0.0,96,0.00,,,0.23,,2013-01-26 07:01:00,
2013-01-26 02:11:00,39.0,38.0,29.94,SE,146,0.0,0.0,96,0.00,,,0.23,,2013-01-26 07:11:00,
2013-01-26 02:21:00,39.0,38.0,29.94,SE,146,0.0,0.0,96,0.00,,,0.23,,2013-01-26 07:21:00,
2013-01-26 02:32:00,39.0,38.0,29.94,SE,146,0.0,0.0,97,0.00,,,0.22,,2013-01-26 07:32:00,
2013-01-26 02:42:00,39.0,38.0,29.94,SE,146,0.0,0.0,97,0.00,,,0.22,,2013-01-26 07:42:00,
2013-01-26 02:51:00,40.0,39.0,29.94,SE,146,0.0,0.0,97,0.00,,,0.22,,2013-01-26 07:51:00,
2013-01-26 03:02:00,40.0,39.0,29.94,SE,146,0.0,0.0,97,0.00,,,0.22,,2013-01-26 08:02:00,
2013-01-26 03:11:00,40.0,39.0,29.94,SE,146,0.0,0.0,97,0.00,,,0.22,,2013-01-26 08:11:00,
2013-01-26 03:21:00,40.0,39.0,29.94,SE,146,0.0,0.0,97,0.00,,,0.22,,2013-01-26 08:21:00,
2013-01-26 03:31:00,40.0,39.0,29.94,SE,146,0.0,0.0,97,0.00,,,0.22,,2013-01-26 08:31:00,
2013-01-26 03:42:00,40.0,39.0,29.94,SE,146,0.0,0.0,97,0.00,,,0.22,,2013-01-26 08:42:00,
2013-01-26 03:53:00,40.0,39.0,29.93,SE,146,0.0,0.0,97,0.00,,,0.22,,2013-01-26 08:53:00,
2013-01-26 04:01:00,40.0,39.0,29.93,SE,146,0.0,0.0,97,0.00,,,0.22,,2013-01-26 09:01:00,
2013-01-26 04:11:00,40.0,39.0,29.93,SE,146,0.0,0.0,97,0.00,,,0.22,,2013-01-26 09:11:00,
2013-01-26 04:22:00,40.0,39.0,29.93,SE,146,0.0,0.0,97,0.00,,,0.18,,2013-01-26 09:22:00,
2013-01-26 04:31:00,40.0,39.0,29.93,SE,146,0.0,0.0,97,0.00,,,0.18,,2013-01-26 09:31:00,
2013-01-26 04:42:00,40.0,39.0,29.93,SE,146,0.0,0.0,97,0.00,,,0.18,,2013-01-26 09:42:00,
2013-01-26 04:52:00,40.0,39.0,29.92,SE,146,0.0,0.0,97,0.00,,,0.18,,2013-01-26 09:52:00,
2013-01-26 05:01:00,40.0,39.0,29.92,SE,146,0.0,0.0,97,0.00,,,0.18,,2013-01-26 10:01:00,
2013-01-26 05:11:00,40.0,39.0,29.92,SE,146,0.0,0.0,97,0.00,,,0.18,,2013-01-26 10:11:00,
2013-01-26 05:21:00,40.0,39.0,29.91,SE,146,0.0,0.0,97,0.00,,,0.13,,2013-01-26 10:21:00,
2013-01-26 05:31:00,40.0,39.0,29.91,SE,146,0.0,0.0,97,0.00,,,0.13,,2013-01-26 10:31:00,
2013-01-26 05:42:00,40.0,39.0,29.91,SE,146,0.0,0.0,97,0.00,,,0.13,,2013-01-26 10:42:00,
2013-01-26 05:52:00,39.0,38.0,29.91,SE,146,0.0,0.0,97,0.00,,,0.13,,2013-01-26 10:52:00,
2013-01-26 06:01:00,39.0,38.0,29.91,SE,146,0.0,0.0,97,0.00,,,0.13,,2013-01-26 11:01:00,
2013-01-26 06:12:00,39.0,38.0,29.91,SE,146,0.0,0.0,97,0.00,,,0.13,,2013-01-26 11:12:00,
2013-01-26 06:21:00,38.0,37.0,29.91,SE,146,0.0,2.0,97,0.00,,,0.09,,2013-01-26 11:21:00,
2013-01-26 06:31:00,38.0,37.0,29.91,SE,146,0.0,2.0,97,0.00,,,0.09,,2013-01-26 11:31:00,
2013-01-26 06:42:00,38.0,37.0,29.91,SE,146,0.0,2.0,97,0.00,,,0.09,,2013-01-26 11:42:00,
2013-01-26 06:52:00,38.0,37.0,29.90,SE,146,0.0,0.0,97,0.00,,,0.09,,2013-01-26 11:52:00,
2013-01-26 07:01:00,38.0,37.0,29.90,SE,146,0.0,0.0,97,0.00,,,0.09,,2013-01-26 12:01:00,
2013-01-26 07:12:00,38.0,37.0,29.90,SE,146,0.0,0.0,97,0.00,,,0.09,,2013-01-26 12:12:00,
2013-01-26 07:22:00,38.0,37.0,29.91,SE,146,1.0,3.0,97,0.00,,,0.05,,2013-01-26 12:22:00,
2013-01-26 07:32:00,38.0,37.0,29.91,SE,146,1.0,3.0,97,0.00,,,0.05,,2013-01-26 12:32:00,
2013-01-26 07:42:00,38.0,37.0,29.91,SE,146,1.0,3.0,97,0.00,,,0.05,,2013-01-26 12:42:00,
2013-01-26 07:52:00,38.0,37.0,29.90,East,84,0.0,0.0,97,0.01,,,0.06,,2013-01-26 12:52:00,
2013-01-26 08:02:00,38.0,37.0,29.90,East,84,0.0,0.0,97,0.01,,,0.06,,2013-01-26 13:02:00,
2013-01-26 08:12:00,38.0,37.0,29.90,East,84,0.0,0.0,97,0.01,,,0.06,,2013-01-26 13:12:00,
2013-01-26 08:22:00,38.0,37.0,29.90,East,84,0.0,0.0,97,0.02,,,0.07,,2013-01-26 13:22:00,
2013-01-26 08:32:00,38.0,37.0,29.90,East,84,0.0,0.0,97,0.02,,,0.07,,2013-01-26 13:32:00,
2013-01-26 08:42:00,38.0,37.0,29.90,East,84,0.0,0.0,97,0.02,,,0.07,,2013-01-26 13:42:00,
2013-01-26 08:52:00,38.0,37.0,29.89,East,84,0.0,0.0,97,0.03,,,0.09,,2013-01-26 13:52:00,
2013-01-26 09:02:00,38.0,37.0,29.89,East,84,0.0,0.0,97,0.03,,,0.09,,2013-01-26 14:02:00,
2013-01-26 09:11:00,38.0,37.0,29.89,East,84,0.0,0.0,97,0.03,,,0.09,,2013-01-26 14:11:00,
2013-01-26 09:21:00,38.0,37.0,29.89,East,84,0.0,0.0,97,0.02,,,0.08,,2013-01-26 14:21:00,
2013-01-26 09:31:00,38.0,37.0,29.89,East,84,0.0,0.0,97,0.02,,,0.08,,2013-01-26 14:31:00,
2013-01-26 09:43:00,38.0,37.0,29.89,East,84,0.0,0.0,97,0.02,,,0.08,,2013-01-26 14:43:00,
2013-01-26 09:52:00,38.0,37.0,29.90,East,84,0.0,0.0,97,0.00,,,0.08,,2013-01-26 14:52:00,
2013-01-26 10:02:00,38.0,37.0,29.90,East,84,0.0,0.0,97,0.00,,,0.08,,2013-01-26 15:02:00,
2013-01-26 10:12:00,38.0,37.0,29.90,East,84,0.0,0.0,97,0.00,,,0.08,,2013-01-26 15:12:00,
2013-01-26 10:21:00,38.0,37.0,29.90,East,84,0.0,0.0,97,0.00,,,0.08,,2013-01-26 15:21:00,
2013-01-26 10:32:00,38.0,37.0,29.90,East,84,0.0,0.0,97,0.00,,,0.08,,2013-01-26 15:32:00,
2013-01-26 10:43:00,38.0,37.0,29.90,East,84,0.0,0.0,97,0.00,,,0.08,,2013-01-26 15:43:00,
2013-01-26 10:52:00,38.0,37.0,29.90,East,84,0.0,0.0,97,0.00,,,0.08,,2013-01-26 15:52:00,
2013-01-26 11:01:00,38.0,37.0,29.90,East,84,0.0,0.0,97,0.00,,,0.08,,2013-01-26 16:01:00,
2013-01-26 11:12:00,38.0,37.0,29.91,East,84,0.0,0.0,97,0.00,,,0.08,,2013-01-26 16:12:00,
2013-01-26 11:21:00,38.0,37.0,29.91,East,84,0.0,0.0,97,0.00,,,0.08,,2013-01-26 16:21:00,
2013-01-26 11:31:00,38.0,37.0,29.91,East,84,0.0,0.0,97,0.00,,,0.08,,2013-01-26 16:31:00,
2013-01-26 11:43:00,38.0,37.0,29.91,East,84,0.0,0.0,97,0.00,,,0.08,,2013-01-26 16:43:00,
2013-01-26 11:53:00,39.0,38.0,29.91,East,84,0.0,1.0,97,0.00,,,0.08,,2013-01-26 16:53:00,
2013-01-26 12:02:00,39.0,38.0,29.91,East,84,0.0,1.0,97,0.00,,,0.08,,2013-01-26 17:02:00,
2013-01-26 12:12:00,39.0,38.0,29.91,East,84,0.0,1.0,97,0.00,,,0.08,,2013-01-26 17:12:00,
2013-01-26 12:21:00,39.0,38.0,29.92,SW,215,2.0,6.0,98,0.02,,,0.10,,2013-01-26 17:21:00,
2013-01-26 12:32:00,39.0,38.0,29.92,SW,215,2.0,6.0,98,0.02,,,0.10,,2013-01-26 17:32:00,
2013-01-26 12:42:00,39.0,38.0,29.92,SW,215,2.0,6.0,98,0.02,,,0.10,,2013-01-26 17:42:00,
2013-01-26 12:52:00,41.0,40.0,29.93,ESE,112,2.0,6.0,98,0.02,,,0.10,,2013-01-26 17:52:00,
2013-01-26 13:02:00,41.0,40.0,29.93,ESE,112,2.0,6.0,98,0.02,,,0.10,,2013-01-26 18:02:00,
2013-01-26 13:11:00,41.0,40.0,29.93,ESE,112,2.0,6.0,98,0.02,,,0.10,,2013-01-26 18:11:00,
2013-01-26 13:21:00,42.0,41.0,29.94,SW,222,3.0,7.0,95,0.00,,,0.10,,2013-01-26 18:21:00,
2013-01-26 13:32:00,42.0,41.0,29.94,SW,222,3.0,7.0,95,0.00,,,0.10,,2013-01-26 18:32:00,
2013-01-26 13:42:00,42.0,41.0,29.94,SW,222,3.0,7.0,95,0.00,,,0.10,,2013-01-26 18:42:00,
2013-01-26 13:52:00,43.0,40.0,29.94,SW,235,3.0,9.0,90,0.00,,,0.10,,2013-01-26 18:52:00,
2013-01-26 14:02:00,43.0,40.0,29.94,SW,235,3.0,9.0,90,0.00,,,0.10,,2013-01-26 19:02:00,
2013-01-26 14:11:00,43.0,40.0,29.94,SW,235,3.0,9.0,90,0.00,,,0.10,,2013-01-26 19:11:00,
2013-01-26 14:22:00,43.0,39.0,29.94,SSE,151,3.0,9.0,87,0.00,,,0.10,,2013-01-26 19:22:00,
2013-01-26 14:32:00,43.0,39.0,29.94,SSE,151,3.0,9.0,87,0.00,,,0.10,,2013-01-26 19:32:00,
2013-01-26 14:42:00,43.0,39.0,29.94,SSE,151,3.0,9.0,87,0.00,,,0.10,,2013-01-26 19:42:00,
2013-01-26 14:52:00,44.0,39.0,29.94,SW,221,3.0,7.0,84,0.00,,,0.10,,2013-01-26 19:52:00,
2013-01-26 15:02:00,44.0,39.0,29.94,SW,221,3.0,7.0,84,0.00,,,0.10,,2013-01-26 20:02:00,
2013-01-26 15:11:00,44.0,39.0,29.94,SW,221,3.0,7.0,84,0.00,,,0.10,,2013-01-26 20:11:00,
2013-01-26 15:21:00,45.0,40.0,29.94,WSW,237,3.0,9.0,81,0.00,,,0.10,,2013-01-26 20:21:00,
2013-01-26 15:32:00,45.0,40.0,29.94,WSW,237,3.0,9.0,81,0.00,,,0.10,,2013-01-26 20:32:00,
2013-01-26 15:42:00,45.0,40.0,29.94,WSW,237,3.0,9.0,81,0.00,,,0.10,,2013-01-26 20:42:00,
2013-01-26 15:52:00,46.0,40.0,29.93,West,267,4.0,8.0,78,0.00,,,0.10,,2013-01-26 20:52:00,
2013-01-26 16:02:00,46.0,40.0,29.93,West,267,4.0,8.0,78,0.00,,,0.10,,2013-01-26 21:02:00,
2013-01-26 16:12:00,46.0,40.0,29.93,West,267,4.0,8.0,78,0.00,,,0.10,,2013-01-26 21:12:00,
2013-01-26 16:22:00,46.0,39.0,29.93,SSW,213,2.0,11.0,77,0.00,,,0.10,,2013-01-26 21:22:00,
2013-01-26 16:31:00,46.0,39.0,29.93,SSW,213,2.0,11.0,77,0.00,,,0.10,,2013-01-26 21:31:00,
2013-01-26 16:43:00,46.0,39.0,29.93,SSW,213,2.0,11.0,77,0.00,,,0.10,,2013-01-26 21:43:00,
2013-01-26 16:52:00,46.0,39.0,29.93,WSW,245,1.0,5.0,77,0.00,,,0.10,,2013-01-26 21:52:00,
2013-01-26 17:01:00,46.0,39.0,29.93,WSW,245,1.0,5.0,77,0.00,,,0.10,,2013-01-26 22:01:00,
2013-01-26 17:11:00,46.0,39.0,29.93,WSW,245,1.0,5.0,77,0.00,,,0.10,,2013-01-26 22:11:00,
2013-01-26 17:21:00,46.0,39.0,29.93,ESE,111,3.0,7.0,76,0.00,,,0.10,,2013-01-26 22:21:00,
2013-01-26 17:31:00,46.0,39.0,29.93,ESE,111,3.0,7.0,76,0.00,,,0.10,,2013-01-26 22:31:00,
2013-01-26 17:42:00,46.0,39.0,29.93,ESE,111,3.0,7.0,76,0.00,,,0.10,,2013-01-26 22:42:00,
2013-01-26 17:52:00,46.0,39.0,29.93,SW,218,3.0,7.0,76,0.00,,,0.10,,2013-01-26 22:52:00,
2013-01-26 18:01:00,46.0,39.0,29.93,SW,218,3.0,7.0,76,0.00,,,0.10,,2013-01-26 23:01:00,
2013-01-26 18:11:00,46.0,39.0,29.93,SW,218,3.0,7.0,76,0.00,,,0.10,,2013-01-26 23:11:00,
2013-01-26 18:21:00,46.0,40.0,29.94,South,180,2.0,5.0,78,0.00,,,0.10,,2013-01-26 23:21:00,
2013-01-26 18:32:00,46.0,40.0,29.94,South,180,2.0,5.0,78,0.00,,,0.10,,2013-01-26 23:32:00,
2013-01-26 18:42:00,46.0,40.0,29.94,South,180,2.0,5.0,78,0.00,,,0.10,,2013-01-26 23:42:00,
2013-01-26 18:52:00,46.0,39.0,29.94,SSW,207,2.0,11.0,75,0.00,,,0.10,,2013-01-26 23:52:00,
2013-01-26 19:01:00,46.0,39.0,29.94,SSW,207,2.0,11.0,75,0.00,,,0.10,,2013-01-27 00:01:00,
2013-01-26 19:11:00,46.0,39.0,29.94,SSW,207,2.0,11.0,75,0.00,,,0.10,,2013-01-27 00:11:00,
2013-01-26 19:21:00,45.0,38.0,29.94,SE,140,3.0,8.0,77,0.00,,,0.10,,2013-01-27 00:21:00,
2013-01-26 19:31:00,45.0,38.0,29.94,SE,140,3.0,8.0,77,0.00,,,0.10,,2013-01-27 00:31:00,
2013-01-26 19:42:00,45.0,38.0,29.94,SE,140,3.0,8.0,77,0.00,,,0.10,,2013-01-27 00:42:00,
2013-01-26 19:52:00,45.0,38.0,29.95,SSW,200,2.0,8.0,77,0.00,,,0.10,,2013-01-27 00:52:00,
2013-01-26 20:01:00,45.0,38.0,29.95,SSW,200,2.0,8.0,77,0.00,,,0.10,,2013-01-27 01:01:00,
2013-01-26 20:11:00,45.0,38.0,29.95,SSW,200,2.0,8.0,77,0.00,,,0.10,,2013-01-27 01:11:00,
2013-01-26 20:22:00,44.0,38.0,29.96,WSW,257,2.0,6.0,79,0.00,,,0.10,,2013-01-27 01:22:00,
2013-01-26 20:31:00,44.0,38.0,29.96,WSW,257,2.0,6.0,79,0.00,,,0.10,,2013-01-27 01:31:00,
2013-01-26 20:42:00,44.0,38.0,29.96,WSW,257,2.0,6.0,79,0.00,,,0.10,,2013-01-27 01:42:00,
2013-01-26 20:52:00,44.0,39.0,29.97,ESE,102,1.0,6.0,83,0.00,,,0.10,,2013-01-27 01:52:00,
2013-01-26 21:01:00,44.0,39.0,29.97,ESE,102,1.0,6.0,83,0.00,,,0.10,,2013-01-27 02:01:00,
2013-01-26 21:11:00,44.0,39.0,29.97,ESE,102,1.0,6.0,83,0.00,,,0.10,,2013-01-27 02:11:00,
2013-01-26 21:21:00,42.0,38.0,29.97,SE,126,2.0,5.0,84,0.01,,,0.11,,2013-01-27 02:21:00,
2013-01-26 21:31:00,42.0,38.0,29.97,SE,126,2.0,5.0,84,0.01,,,0.11,,2013-01-27 02:31:00,
2013-01-26 21:42:00,42.0,38.0,29.97,SE,126,2.0,5.0,84,0.01,,,0.11,,2013-01-27 02:42:00,
2013-01-26 21:52:00,42.0,38.0,29.98,WSW,253,1.0,6.0,85,0.01,,,0.11,,2013-01-27 02:52:00,
2013-01-26 22:01:00,42.0,38.0,29.98,WSW,253,1.0,6.0,85,0.01,,,0.11,,2013-01-27 03:01:00,
2013-01-26 22:11:00,42.0,38.0,29.98,WSW,253,1.0,6.0,85,0.01,,,0.11,,2013-01-27 03:11:00,
2013-01-26 22:21:00,42.0,38.0,29.99,South,180,0.0,3.0,87,0.00,,,0.11,,2013-01-27 03:21:00,
2013-01-26 22:31:00,42.0,38.0,29.99,South,180,0.0,3.0,87,0.00,,,0.11,,2013-01-27 03:31:00,
2013-01-26 22:42:00,42.0,38.0,29.99,South,180,0.0,3.0,87,0.00,,,0.11,,2013-01-27 03:42:00,
2013-01-26 22:52:00,41.0,38.0,30.00,WSW,242,2.0,5.0,88,0.00,,,0.11,,2013-01-27 03:52:00,
2013-01-26 23:01:00,41.0,38.0,30.00,WSW,242,2.0,5.0,88,0.00,,,0.11,,2013-01-27 04:01:00,
2013-01-26 23:11:00,41.0,38.0,30.00,WSW,242,2.0,5.0,88,0.00,,,0.11,,2013-01-27 04:11:00,
2013-01-26 23:21:00,41.0,38.0,30.00,SW,227,0.0,2.0,90,0.00,,,0.08,,2013-01-27 04:21:00,
2013-01-26 23:31:00,41.0,38.0,30.00,SW,227,0.0,2.0,90,0.00,,,0.08,,2013-01-27 04:31:00,
2013-01-26 23:42:00,41.0,38.0,30.00,SW,227,0.0,2.0,90,0.00,,,0.08,,2013-01-27 04:42:00,
2013-01-26 23:52:00,41.0,39.0,30.01,ESE,108,0.0,4.0,91,0.00,,,0.08,,2013-01-27 04:52:00,